This is the latest recevied weather packets stored in our database for station/object KC4BAM. If no packets are shown the sender has not sent any weather packets the latest 1 day(s).
| Time | Temp. | Humidity | Pressure | Rain* | Wind** | Luminosity | Snow |
|---|---|---|---|---|---|---|---|
| 1777993433 | 19.44° C | 67% | 1001.8 hPa | 0 mm | 1.79 m/s, 220° | 77 W/m² | - |
| 1777993132 | 18.89° C | 67% | 1001.8 hPa | 0 mm | 1.34 m/s, 211° | 70 W/m² | - |
| 1777992830 | 18.89° C | 68% | 1001.8 hPa | 0 mm | 2.24 m/s, 190° | 84 W/m² | - |
| 1777992528 | 18.89° C | 68% | 1002.1 hPa | 0 mm | 1.34 m/s, 204° | 88 W/m² | - |
| 1777992227 | 18.89° C | 67% | 1001.8 hPa | 0 mm | 1.79 m/s, 217° | 97 W/m² | - |
| 1777991923 | 18.89° C | 68% | 1001.8 hPa | 0 mm | 2.68 m/s, 220° | 104 W/m² | - |
| 1777991621 | 18.89° C | 68% | 1001.8 hPa | 0 mm | 2.24 m/s, 199° | 74 W/m² | - |
| 1777991318 | 18.89° C | 68% | 1001.7 hPa | 0 mm | 2.68 m/s, 208° | 72 W/m² | - |
| 1777991015 | 18.33° C | 68% | 1001.8 hPa | 0 mm | 1.79 m/s, 212° | 131 W/m² | - |
| 1777990712 | 18.33° C | 68% | 1001.7 hPa | 0 mm | 1.34 m/s, 253° | 102 W/m² | - |
| 1777990409 | 18.33° C | 68% | 1001.7 hPa | 0 mm | 2.68 m/s, 244° | 103 W/m² | - |
| 1777990106 | 18.33° C | 68% | 1001.6 hPa | 0 mm | 3.13 m/s, 244° | 107 W/m² | - |
| 1777989802 | 18.33° C | 69% | 1001.6 hPa | 0 mm | 1.34 m/s, 211° | 100 W/m² | - |
| 1777989500 | 17.78° C | 69% | 1001.3 hPa | 0 mm | 1.79 m/s, 217° | 117 W/m² | - |
| 1777989195 | 17.78° C | 69% | 1001.3 hPa | 0 mm | 1.34 m/s, 210° | 111 W/m² | - |
| 1777988892 | 17.78° C | 69% | 1001.6 hPa | 0 mm | 1.34 m/s, 192° | 83 W/m² | - |
| 1777988589 | 17.78° C | 69% | 1001.5 hPa | 0 mm | 0.89 m/s, 233° | 63 W/m² | - |
| 1777988285 | 17.78° C | 69% | 1001.6 hPa | 0 mm | 1.79 m/s, 185° | 75 W/m² | - |
| 1777987983 | 17.78° C | 69% | 1001.7 hPa | 0 mm | 0.89 m/s, 196° | 73 W/m² | - |
| 1777987678 | 17.22° C | 69% | 1001.7 hPa | 0 mm | 1.34 m/s, 188° | 71 W/m² | - |
| 1777987375 | 17.22° C | 69% | 1001.6 hPa | 0 mm | 1.79 m/s, 222° | 72 W/m² | - |
| 1777987073 | 17.22° C | 69% | 1001.5 hPa | 0 mm | 2.24 m/s, 203° | 77 W/m² | - |
| 1777986770 | 17.22° C | 69% | 1001.3 hPa | 0 mm | 1.79 m/s, 234° | 74 W/m² | - |
| 1777986468 | 17.22° C | 69% | 1001.5 hPa | 0 mm | 2.68 m/s, 224° | 68 W/m² | - |
| 1777986166 | 17.22° C | 69% | 1001.4 hPa | 0 mm | 1.79 m/s, 237° | 66 W/m² | - |
* Rain latest hour (hover to see other rain measurements)
** Current wind speed in m/s (hover to see current wind gust speed)